Location: B�rgermoos
(47.6500°N, 9.0667°E)
Time: 16:34:40
(UTC+00:00)

Vanguard 1 - Pass Details

Date: 08 August 2021
Orbit: 652 x 3831 km, 34.3° (Epoch: 17 September)

Event Time Altitude Azimuth Distance (km) Brightness Sun altitude
Rises 13:17:15 0° 250° (WSW) 3,474 13.4 51.3°
Reaches altitude 10° 13:21:20 10° 220° (SW) 2,953 13.4 50.8°
Maximum altitude 13:24:03 12° 198° (SSW) 3,084 13.4 50.5°
Drops below altitude 10° 13:27:15 10° 176° (S) 3,643 13.5 50.1°
Sets 13:34:00 0° 152° (SSE) 5,445 14.0 49.3°
